AC2JK-WX Weather Reports


Display with metric or nautical units.
time (UTC)temp
F
wind
direction
speed
MPH
gust
MPH
rain 1hr
in
rain 24hr
in
rain mn
in
humidity
%
barometer
mb
20260905022710 70 31 0.0 0.0 0.00 0.00 0.01 84 1015.0
20260905022210 70 122 0.0 0.0 0.00 0.00 0.01 84 1015.0
20260905021715 71 167 0.0 0.0 0.00 0.00 0.01 84 1015.0
20260905021209 71 163 0.0 0.0 0.00 0.00 0.01 84 1015.0
20260905020709 71 140 0.0 0.0 0.00 0.00 0.01 84 1015.0
20260905020214 71 178 0.0 0.0 0.00 0.00 0.01 83 1015.0
20260905015709 71 43 0.0 0.0 0.00 0.00 0.01 83 1015.0
20260905015209 71 14 0.0 0.0 0.00 0.00 0.01 83 1015.0
20260905014710 72 160 0.0 0.0 0.00 0.00 0.01 83 1015.0
20260905014209 72 106 0.0 0.0 0.00 0.00 0.01 83 1015.0
20260905013709 72 136 0.0 0.0 0.00 0.00 0.01 83 1015.0
20260905013209 72 5 0.0 0.0 0.00 0.00 0.01 83 1015.0
20260905012709 72 108 0.0 0.0 0.00 0.00 0.01 83 1015.0
20260905012210 72 31 0.0 2.0 0.00 0.00 0.01 83 1015.0
20260905011710 72 340 0.0 1.0 0.00 0.00 0.01 82 1015.0
20260905011209 72 49 0.0 0.0 0.00 0.00 0.01 82 1015.0
20260905010709 72 231 0.0 0.0 0.00 0.00 0.01 82 1015.0
20260905010209 72 43 0.0 2.0 0.00 0.00 0.01 81 1015.0
20260905005711 72 94 0.0 0.0 0.00 0.00 0.01 81 1015.0
20260905005209 72 261 0.0 2.0 0.00 0.00 0.01 82 1015.0
20260905004712 72 134 0.0 0.0 0.00 0.00 0.01 82 1015.0
20260905004209 72 131 0.0 0.0 0.00 0.00 0.01 82 1015.0
20260905003709 72 133 0.0 1.0 0.00 0.00 0.01 81 1015.0
20260905003209 73 131 1.0 1.0 0.00 0.00 0.01 82 1015.0
20260905002709 73 178 0.0 1.0 0.00 0.00 0.01 81 1015.0
20260905002209 73 62 0.0 2.0 0.00 0.00 0.01 81 1015.0
20260905001236 73 36 0.0 0.0 0.00 0.00 0.01 80 1015.0
20260905000711 73 184 1.0 1.0 0.00 0.00 0.01 80 1015.0
20260905000211 73 170 0.0 1.0 0.00 0.00 0.01 79 1015.0
20260904235710 73 204 0.0 1.0 0.00 0.00 0.01 79 1015.0
20260904235209 73 153 0.0 1.0 0.00 0.00 0.01 78 1015.0
20260904234709 74 302 0.0 1.0 0.00 0.00 0.01 78 1015.0
20260904234209 74 149 0.0 1.0 0.00 0.00 0.01 77 1015.0
20260904233711 74 235 0.0 0.0 0.00 0.00 0.01 76 1015.0
20260904233209 74 157 0.0 1.0 0.00 0.00 0.01 76 1015.0
20260904232709 74 181 0.0 1.0 0.00 0.00 0.01 75 1015.0
20260904232209 75 171 0.0 4.0 0.00 0.00 0.01 74 1015.0
20260904231710 75 190 4.0 4.0 0.00 0.00 0.01 73 1015.0
20260904231211 75 187 0.0 0.0 0.00 0.00 0.01 73 1015.0
20260904230709 75 115 1.0 2.0 0.00 0.00 0.01 71 1015.0
20260904230210 76 347 0.0 0.0 0.00 0.00 0.01 70 1015.0
20260904225709 76 118 0.0 0.0 0.00 0.00 0.01 70 1015.0
20260904225209 76 309 2.0 4.0 0.00 0.00 0.01 69 1014.0
20260904224709 76 209 0.0 0.0 0.00 0.00 0.01 69 1014.0
20260904224209 77 215 0.0 3.0 0.00 0.00 0.01 68 1014.0
20260904223709 77 38 0.0 2.0 0.00 0.00 0.01 64 1014.0
20260904223209 77 86 3.0 4.0 0.00 0.00 0.01 62 1014.0
20260904222709 77 356 2.0 4.0 0.00 0.00 0.01 63 1014.0
20260904222209 77 28 3.0 3.0 0.00 0.00 0.01 63 1014.0
20260904221711 77 300 2.0 2.0 0.00 0.00 0.01 63 1014.0
20260904221210 77 9 3.0 3.0 0.00 0.00 0.01 64 1014.0
20260904220710 77 287 0.0 0.0 0.00 0.00 0.01 67 1014.0
20260904220210 76 298 1.0 2.0 0.00 0.00 0.01 64 1014.0
20260904215709 76 32 0.0 1.0 0.00 0.00 0.01 65 1014.0
20260904215211 76 175 0.0 2.0 0.00 0.00 0.01 66 1014.0
20260904214710 76 60 1.0 2.0 0.00 0.00 0.01 66 1014.0
20260904214209 76 146 0.0 1.0 0.00 0.00 0.01 67 1014.0
20260904213709 76 163 0.0 2.0 0.00 0.00 0.01 68 1014.0
20260904213312 76 44 0.0 0.0 0.00 0.00 0.01 68 1014.0
20260904212718 76 27 0.0 0.0 0.00 0.00 0.01 68 1014.0
20260904212209 76 347 0.0 0.0 0.00 0.00 0.01 69 1014.0
20260904211709 76 166 0.0 0.0 0.00 0.00 0.01 70 1014.0
20260904211210 76 13 0.0 1.0 0.00 0.00 0.01 69 1014.0
20260904210710 76 178 2.0 2.0 0.00 0.00 0.01 70 1014.0
20260904210210 76 164 2.0 3.0 0.00 0.00 0.01 69 1014.0
20260904205710 76 173 0.0 2.0 0.00 0.00 0.01 68 1014.0
20260904205209 76 272 0.0 2.0 0.00 0.00 0.01 68 1014.0
20260904204710 76 129 0.0 2.0 0.00 0.00 0.01 68 1014.0
20260904204209 76 201 1.0 4.0 0.00 0.00 0.01 68 1014.0
20260904203710 77 32 1.0 3.0 0.00 0.00 0.01 68 1014.0
20260904203209 77 179 1.0 1.0 0.00 0.00 0.01 67 1014.0
20260904202709 77 203 3.0 3.0 0.00 0.00 0.01 67 1014.0
20260904202210 77 345 1.0 1.0 0.00 0.00 0.01 66 1015.0
20260904201710 77 281 0.0 3.0 0.00 0.00 0.01 65 1015.0
20260904201209 77 155 0.0 2.0 0.00 0.00 0.01 66 1015.0
20260904200709 78 152 3.0 3.0 0.00 0.00 0.01 64 1015.0
20260904200209 78 134 1.0 4.0 0.00 0.00 0.01 64 1015.0
20260904195710 78 296 2.0 3.0 0.00 0.00 0.01 64 1015.0
20260904195209 78 149 0.0 2.0 0.00 0.00 0.01 66 1015.0
20260904194710 78 299 3.0 3.0 0.00 0.00 0.01 64 1015.0
20260904194211 78 148 3.0 3.0 0.00 0.00 0.01 65 1015.0
20260904193710 78 143 2.0 2.0 0.00 0.00 0.01 66 1015.0
20260904193210 78 63 3.0 3.0 0.00 0.00 0.01 64 1015.0
20260904192709 78 227 2.0 2.0 0.00 0.00 0.01 65 1015.0
20260904192210 78 3 0.0 2.0 0.00 0.00 0.01 64 1015.0
20260904191709 78 333 0.0 2.0 0.00 0.00 0.01 63 1015.0
20260904191209 78 339 2.0 3.0 0.00 0.00 0.01 64 1015.0
20260904190709 78 110 2.0 3.0 0.00 0.00 0.01 62 1015.0
20260904190210 79 149 1.0 4.0 0.00 0.00 0.01 61 1015.0
20260904185710 79 24 0.0 3.0 0.00 0.00 0.01 58 1015.0
20260904185210 80 72 0.0 4.0 0.00 0.00 0.01 59 1015.0
20260904184710 80 279 0.0 0.0 0.00 0.00 0.01 59 1016.0
20260904184210 80 342 1.0 1.0 0.00 0.00 0.01 61 1016.0
20260904183709 79 237 0.0 1.0 0.00 0.00 0.01 63 1016.0
20260904183209 79 356 1.0 2.0 0.00 0.00 0.01 61 1016.0
20260904182709 79 210 0.0 2.0 0.00 0.00 0.01 63 1016.0
20260904182209 79 185 1.0 2.0 0.00 0.00 0.01 61 1016.0
20260904181710 79 324 0.0 1.0 0.00 0.00 0.01 61 1016.0
20260904181209 79 154 2.0 3.0 0.00 0.00 0.01 61 1016.0
20260904180710 80 76 1.0 3.0 0.00 0.00 0.01 57 1016.0
20260904180211 80 136 0.0 4.0 0.00 0.00 0.01 56 1016.0
20260904175709 80 233 1.0 3.0 0.00 0.00 0.01 58 1016.0
20260904175209 81 157 2.0 3.0 0.00 0.00 0.01 57 1016.0
20260904174709 81 160 1.0 2.0 0.00 0.00 0.01 57 1016.0
20260904174210 81 352 1.0 3.0 0.00 0.00 0.01 58 1016.0
20260904173710 81 166 4.0 4.0 0.00 0.00 0.01 59 1016.0
20260904173210 81 264 0.0 4.0 0.00 0.00 0.01 58 1016.0
20260904172709 81 63 1.0 3.0 0.00 0.00 0.01 57 1016.0
20260904172209 81 303 1.0 5.0 0.00 0.00 0.01 55 1016.0
20260904171711 81 292 3.0 6.0 0.00 0.00 0.01 53 1016.0
20260904171210 81 16 2.0 5.0 0.00 0.00 0.01 52 1016.0
20260904170709 81 159 2.0 6.0 0.00 0.00 0.01 53 1017.0
20260904170210 80 141 0.0 0.0 0.00 0.00 0.01 57 1017.0
20260904165709 81 8 1.0 2.0 0.01 0.00 0.01 56 1017.0
20260904165209 81 305 3.0 7.0 0.01 0.00 0.01 55 1017.0
20260904164710 80 342 1.0 2.0 0.01 0.00 0.01 59 1017.0
20260904164209 80 23 1.0 4.0 0.01 0.00 0.01 58 1017.0
20260904163710 80 143 2.0 2.0 0.01 0.00 0.01 58 1017.0
20260904163209 79 35 1.0 4.0 0.01 0.00 0.01 59 1017.0
20260904162710 79 269 2.0 5.0 0.01 0.00 0.01 62 1017.0
20260904162209 79 269 1.0 6.0 0.01 0.00 0.01 63 1017.0
20260904161716 78 48 4.0 5.0 0.01 0.00 0.01 61 1017.0
20260904161209 78 254 4.0 5.0 0.01 0.00 0.01 61 1017.0
20260904160709 79 19 4.0 4.0 0.01 0.00 0.01 61 1017.0
20260904160210 78 2 1.0 1.0 0.01 0.00 0.01 64 1017.0
20260904155710 77 2 0.0 2.0 0.00 0.00 0.00 64 1017.0
20260904155211 77 341 3.0 3.0 0.00 0.00 0.00 63 1017.0
20260904154710 77 353 2.0 2.0 0.00 0.00 0.00 63 1017.0
20260904154211 77 235 0.0 3.0 0.00 0.00 0.00 62 1017.0
20260904153710 77 340 1.0 3.0 0.00 0.00 0.00 62 1017.0
20260904153209 77 335 0.0 2.0 0.00 0.00 0.00 62 1017.0
20260904152709 77 262 1.0 3.0 0.00 0.00 0.00 62 1017.0
20260904152210 76 49 0.0 0.0 0.00 0.00 0.00 67 1017.0
20260904151710 76 315 0.0 3.0 0.00 0.00 0.00 65 1017.0
20260904151211 76 359 1.0 1.0 0.00 0.00 0.00 67 1017.0
20260904150710 75 183 2.0 2.0 0.00 0.00 0.00 70 1017.0
20260904150209 74 125 0.0 0.0 0.00 0.00 0.00 72 1017.0
20260904145709 74 183 0.0 0.0 0.00 0.00 0.00 72 1017.0
20260904145209 73 316 0.0 0.0 0.00 0.00 0.00 73 1017.0
20260904144710 73 18 1.0 2.0 0.00 0.00 0.00 72 1017.0
20260904144211 73 351 0.0 4.0 0.00 0.00 0.00 74 1017.0
20260904143710 72 305 0.0 0.0 0.00 0.00 0.00 78 1017.0
20260904143210 72 66 0.0 0.0 0.00 0.00 0.00 78 1016.0
20260904142709 71 226 0.0 0.0 0.00 0.00 0.00 80 1016.0
20260904142210 70 151 0.0 0.0 0.00 0.00 0.00 82 1016.0
20260904141709 70 42 3.0 3.0 0.00 0.00 0.00 85 1016.0
20260904141210 69 6 0.0 1.0 0.00 0.00 0.00 88 1016.0
20260904140709 68 267 0.0 0.0 0.00 0.00 0.00 91 1016.0
20260904140210 68 5 0.0 0.0 0.00 0.00 0.00 94 1016.0
20260904135711 68 85 0.0 0.0 0.00 0.00 0.00 96 1016.0
20260904135213 67 71 0.0 0.0 0.00 0.00 0.00 98 1016.0
20260904134709 67 128 0.0 0.0 0.00 0.00 0.00 99 1017.0
20260904134210 66 307 0.0 0.0 0.00 0.00 0.00 98 1017.0
20260904133721 67 24 0.0 0.0 0.00 0.00 0.00 99 1017.0
20260904133209 66 252 0.0 0.0 0.00 0.00 0.00 99 1017.0
20260904132710 66 251 0.0 0.0 0.00 0.00 0.00 99 1017.0
20260904132210 66 334 0.0 0.0 0.00 0.00 0.00 100 1017.0
20260904131710 66 11 0.0 0.0 0.00 0.00 0.00 100 1017.0
20260904131209 66 303 0.0 0.0 0.00 0.00 0.00 100 1017.0
20260904130710 67 28 0.0 0.0 0.00 0.00 0.00 100 1017.0
20260904130210 66 120 0.0 0.0 0.00 0.00 0.00 100 1017.0
20260904125709 66 154 0.0 0.0 0.00 0.00 0.00 100 1017.0
20260904125209 66 39 0.0 0.0 0.00 0.00 0.00 100 1017.0
20260904124710 66 45 0.0 0.0 0.00 0.00 0.00 100 1017.0
20260904124209 66 326 0.0 0.0 0.00 0.00 0.00 100 1017.0
20260904123710 66 179 0.0 0.0 0.00 0.00 0.00 100 1017.0
20260904123209 66 144 0.0 0.0 0.00 0.00 0.00 100 1017.0
20260904122710 66 98 0.0 0.0 0.00 0.00 0.00 100 1017.0
20260904122209 66 336 0.0 0.0 0.00 0.00 0.00 100 1017.0
20260904121709 66 151 0.0 0.0 0.00 0.00 0.00 100 1017.0
20260904121210 66 146 0.0 0.0 0.00 0.00 0.00 100 1017.0
20260904120710 66 157 0.0 0.0 0.00 0.00 0.00 100 1017.0
20260904120210 66 152 0.0 0.0 0.00 0.00 0.00 100 1017.0
20260904115711 66 124 0.0 0.0 0.00 0.00 0.00 100 1017.0
20260904115209 66 141 0.0 0.0 0.00 0.00 0.00 100 1017.0
20260904114709 66 151 0.0 0.0 0.00 0.00 0.00 100 1017.0
20260904114211 66 155 0.0 0.0 0.00 0.00 0.00 100 1017.0
20260904113709 66 138 0.0 0.0 0.00 0.00 0.00 100 1016.0
20260904113209 66 146 0.0 0.0 0.00 0.00 0.00 100 1016.0
20260904112709 66 155 0.0 0.0 0.00 0.00 0.00 100 1016.0
20260904112209 66 156 0.0 0.0 0.00 0.00 0.00 100 1016.0
20260904111710 66 150 0.0 0.0 0.00 0.00 0.00 100 1016.0
20260904111210 66 168 0.0 0.0 0.00 0.00 0.00 100 1016.0
20260904110709 66 149 0.0 0.0 0.00 0.00 0.00 99 1016.0
20260904110210 66 139 0.0 0.0 0.00 0.00 0.00 100 1016.0
20260904105709 66 155 0.0 0.0 0.00 0.00 0.00 100 1016.0
20260904105211 66 142 0.0 0.0 0.00 0.00 0.00 100 1016.0
20260904104709 66 151 0.0 0.0 0.00 0.00 0.00 100 1016.0
20260904104209 67 144 0.0 0.0 0.00 0.00 0.00 100 1016.0
20260904103710 67 155 0.0 0.0 0.00 0.00 0.00 100 1016.0
20260904103209 67 142 0.0 0.0 0.00 0.00 0.00 100 1016.0
20260904102709 67 154 0.0 0.0 0.00 0.00 0.00 100 1016.0
20260904102209 67 158 0.0 0.0 0.00 0.00 0.00 100 1016.0
20260904101709 67 155 0.0 0.0 0.00 0.00 0.00 100 1016.0
20260904101210 67 144 0.0 0.0 0.00 0.00 0.00 100 1016.0
20260904100709 67 159 0.0 0.0 0.00 0.00 0.00 100 1016.0
20260904100210 66 156 0.0 0.0 0.00 0.00 0.00 100 1016.0
20260904095709 67 155 0.0 0.0 0.00 0.00 0.00 100 1016.0
20260904095210 67 155 0.0 0.0 0.00 0.00 0.00 100 1016.0
20260904094709 66 151 0.0 0.0 0.00 0.00 0.00 100 1016.0
20260904094209 66 131 0.0 0.0 0.00 0.00 0.00 99 1016.0
20260904093710 66 151 0.0 0.0 0.00 0.00 0.00 99 1016.0
20260904093212 67 150 0.0 0.0 0.00 0.00 0.00 100 1015.0
20260904092709 67 154 0.0 0.0 0.00 0.00 0.00 99 1015.0
20260904092209 67 123 0.0 0.0 0.00 0.00 0.00 100 1016.0
20260904091710 67 77 0.0 0.0 0.00 0.00 0.00 100 1015.0
20260904091209 67 122 0.0 0.0 0.00 0.00 0.00 100 1015.0
20260904090710 67 145 0.0 0.0 0.00 0.00 0.00 100 1015.0
20260904090210 67 130 0.0 0.0 0.00 0.00 0.00 100 1015.0
20260904085709 67 152 0.0 0.0 0.00 0.00 0.00 100 1015.0
20260904085210 67 121 0.0 0.0 0.00 0.00 0.00 100 1015.0
20260904084710 67 162 0.0 0.0 0.00 0.00 0.00 100 1015.0
20260904084210 67 138 0.0 0.0 0.00 0.00 0.00 100 1015.0
20260904083709 67 125 0.0 0.0 0.00 0.00 0.00 99 1016.0
20260904083209 67 162 0.0 0.0 0.00 0.00 0.00 99 1015.0
20260904082709 67 35 0.0 0.0 0.00 0.00 0.00 100 1016.0
20260904082209 67 42 0.0 0.0 0.00 0.00 0.00 99 1015.0
20260904081710 67 190 0.0 0.0 0.00 0.00 0.00 99 1015.0
20260904081210 67 356 0.0 0.0 0.00 0.00 0.00 99 1015.0
20260904080710 67 120 0.0 0.0 0.00 0.00 0.00 100 1015.0
20260904080210 67 115 0.0 0.0 0.00 0.00 0.00 99 1015.0
20260904075709 67 134 0.0 0.0 0.00 0.00 0.00 99 1015.0
20260904075211 67 331 0.0 0.0 0.00 0.00 0.00 99 1015.0
20260904074709 67 100 0.0 0.0 0.00 0.00 0.00 99 1015.0
20260904074210 67 78 0.0 0.0 0.00 0.00 0.00 99 1015.0
20260904073709 67 125 0.0 0.0 0.00 0.00 0.00 99 1015.0
20260904073209 67 113 0.0 0.0 0.00 0.00 0.00 99 1015.0
20260904072709 67 141 0.0 0.0 0.00 0.00 0.00 99 1015.0
20260904072209 67 147 0.0 0.0 0.00 0.00 0.00 100 1015.0
20260904071710 67 138 0.0 0.0 0.00 0.00 0.00 99 1015.0
20260904071210 67 164 0.0 0.0 0.00 0.00 0.00 99 1015.0
20260904070710 67 153 0.0 0.0 0.00 0.00 0.00 99 1015.0
20260904070210 67 153 0.0 0.0 0.00 0.00 0.00 99 1015.0
20260904065709 67 152 0.0 0.0 0.00 0.00 0.00 99 1015.0
20260904065210 68 160 0.0 0.0 0.00 0.00 0.00 99 1015.0
20260904064709 68 116 0.0 0.0 0.00 0.00 0.00 99 1015.0
20260904064209 68 151 0.0 0.0 0.00 0.00 0.00 99 1015.0
20260904063716 68 151 0.0 0.0 0.00 0.00 0.00 99 1015.0
20260904063209 68 154 0.0 0.0 0.00 0.00 0.00 99 1015.0
20260904062710 68 152 0.0 0.0 0.00 0.00 0.00 99 1015.0
20260904062210 68 158 0.0 0.0 0.00 0.00 0.00 99 1015.0
20260904061711 68 146 0.0 0.0 0.00 0.00 0.00 99 1015.0
20260904061209 68 133 0.0 0.0 0.00 0.00 0.00 99 1015.0
20260904060710 68 146 0.0 0.0 0.00 0.00 0.00 99 1015.0
20260904060210 69 149 0.0 0.0 0.00 0.00 0.00 99 1015.0
20260904055710 69 146 0.0 0.0 0.00 0.00 0.00 99 1015.0
20260904055210 69 143 0.0 0.0 0.00 0.00 0.00 99 1015.0
20260904054710 69 88 0.0 0.0 0.00 0.00 0.00 99 1015.0
20260904054209 69 154 0.0 0.0 0.00 0.00 0.00 99 1015.0
20260904053711 69 159 0.0 0.0 0.00 0.00 0.00 99 1015.0
20260904053209 69 171 0.0 0.0 0.00 0.00 0.00 99 1015.0
20260904052709 69 99 0.0 0.0 0.00 0.00 0.00 99 1015.0
20260904052210 69 148 0.0 0.0 0.00 0.00 0.00 99 1015.0
20260904051710 70 136 0.0 0.0 0.00 0.00 0.00 99 1015.0
20260904051209 70 154 0.0 0.0 0.00 0.00 0.00 99 1015.0
20260904050709 70 128 0.0 0.0 0.00 0.00 0.00 99 1015.0
20260904050209 70 134 0.0 0.0 0.00 0.00 0.00 99 1015.0
20260904045709 69 115 0.0 0.0 0.00 0.00 0.00 99 1015.0
20260904045209 70 140 0.0 0.0 0.00 0.00 0.00 99 1015.0
20260904044709 70 132 0.0 0.0 0.00 0.00 0.00 99 1015.0
20260904044210 70 7 0.0 0.0 0.00 0.00 0.00 99 1015.0
20260904043712 70 63 0.0 0.0 0.00 0.00 0.00 99 1015.0
20260904043209 70 320 0.0 0.0 0.00 0.00 0.00 99 1015.0
20260904042709 70 81 0.0 0.0 0.00 0.00 0.00 99 1015.0
20260904042209 70 145 0.0 0.0 0.00 0.00 0.00 99 1015.0
20260904041709 70 131 0.0 0.0 0.00 0.00 0.00 99 1015.0
20260904041210 70 133 0.0 0.0 0.00 0.00 0.00 99 1015.0
20260904040709 70 144 0.0 0.0 0.00 0.00 0.00 99 1015.0
20260904040209 70 148 0.0 0.0 0.00 0.00 3.25 99 1015.0
20260904035710 70 140 0.0 0.0 0.00 0.00 3.25 99 1015.0
20260904035210 70 133 0.0 0.0 0.00 0.00 3.25 99 1015.0
20260904034710 70 132 0.0 0.0 0.00 0.00 3.25 99 1015.0
20260904034209 70 147 0.0 0.0 0.00 0.00 3.25 99 1015.0
20260904033710 69 152 0.0 0.0 0.00 0.00 3.25 99 1015.0
20260904033210 69 134 0.0 0.0 0.00 0.00 3.25 99 1015.0
20260904032710 69 148 0.0 0.0 0.00 0.00 3.25 99 1015.0
20260904032209 69 125 0.0 0.0 0.00 0.00 3.25 99 1015.0
20260904031710 69 152 0.0 0.0 0.00 0.00 3.25 99 1015.0
20260904031209 69 148 0.0 0.0 0.00 0.00 3.25 99 1015.0
20260904030710 69 160 0.0 0.0 0.00 0.00 3.25 99 1015.0
20260904030209 70 157 0.0 0.0 0.00 0.00 3.25 99 1015.0
20260904025710 70 135 0.0 0.0 0.00 0.00 3.25 99 1015.0
20260904025210 70 149 0.0 0.0 0.00 0.00 3.25 99 1015.0
20260904024710 70 130 0.0 0.0 0.00 0.00 3.25 99 1015.0
20260904024209 70 135 0.0 0.0 0.00 0.00 3.25 98 1015.0
20260904023709 70 144 0.0 0.0 0.00 0.00 3.25 98 1015.0
20260904023209 70 149 0.0 0.0 0.00 0.00 3.25 98 1015.0